Regional Weather Roundup
Issued by NWS

Home | Current Version | Previous Version | Text Only | Print | Product List | Glossary On
Versions: 1 2 3 4 5 6 7 8 9 10 11 12 13 14 15 16 17 18 19 20 21 22 23 24 25 26 27 28 29 30 31 32 33 34 35 36 37 38 39 40 41 42 43 44 45 46 47 48 49 50
000
ASUS43 KTOP 312108
RWRKS

WEATHER ROUNDUP FOR KANSAS
NATIONAL WEATHER SERVICE GOODLAND KS
400 PM CDT FRI JUL 31 2015

NOTE:  "FAIR" INDICATES FEW OR NO CLOUDS BELOW 12,000 FEET WITH NO
SIGNIFICANT WEATHER AND/OR OBSTRUCTIONS TO VISIBILITY.

KSZ001>006-013>018-027>032-041>047-312200-
NORTHWEST KANSAS

CITY           SKY/WX    TMP DP  RH WIND       PRES   REMARKS
GOODLAND       MOSUNNY   88  60  38 S12       30.20F
HAYS           SUNNY     91  63  38 S8        30.13F
HILL CITY      SUNNY     93  58  30 CALM      30.13F
RUSSELL        SUNNY     92  62  36 MISG      30.11F
$$

KSZ061>065-074>080-084>089-312200-
SOUTHWEST KANSAS

CITY           SKY/WX    TMP DP  RH WIND       PRES   REMARKS
DODGE CITY     MOSUNNY   87  66  49 S6        30.17F
ELKHART          N/A     79  64  60 SE9         N/A
GARDEN CITY    SUNNY     85  66  53 SW8       30.17F
GREAT BEND     MOSUNNY   90  66  45 S6        30.12F
LIBERAL        CLOUDY    82  64  54 E3        30.16F
PRATT          MOSUNNY   86  63  45 W6        30.15F
$$

KSZ066>073-081>083-090>101-312200-
SOUTHEAST KANSAS

CITY           SKY/WX    TMP DP  RH WIND       PRES   REMARKS
CHANUTE        SUNNY     90  67  46 CALM      30.09F
COFFEYVILLE    PTSUNNY   90  72  55 VRB7      30.08F HX  97
HUTCHINSON     MOSUNNY   89  68  49 S8        30.12F
MEDICINE LODGE   N/A     87  71  58 CALM      30.11F
NEWTON         MOSUNNY   88  66  48 S5        30.15F
PARSONS        SUNNY     88  73  61 S3        30.10F HX  95
WICHITA INTL   MOSUNNY   91  67  44 NW3       30.10F
WICHITA JABRA  MOSUNNY   89  68  49 N3        30.11F
WICHITA MCCONL MOSUNNY   89  70  53 VRB1      30.11F
WINFIELD       PTSUNNY   90  72  55 W3        30.10F HX  97
$$

KSZ007>012-019>026-033>040-048>060-102>105-312200-
NORTHEAST KANSAS

CITY           SKY/WX    TMP DP  RH WIND       PRES   REMARKS
CONCORDIA      SUNNY     91  67  44 S6        30.09F
EMPORIA        SUNNY     90  66  45 VRB3      30.10F
LAWRENCE       SUNNY     90  68  48 NW6       30.09F
MANHATTAN      SUNNY     92  70  48 S5        30.08F HX  97
MARYSVILLE     SUNNY     90  68  48 NW3       30.09F
OLATHE IND     SUNNY     89  65  44 W6        30.11F
OLATHE EXE     SUNNY     88  62  41 MISG      30.09F
SALINA         MOSUNNY   92  70  48 S6        30.09F HX  97
TOPEKA BILLARD SUNNY     89  66  46 VRB3      30.09F
TOPEKA FORBES  SUNNY     91  63  39 CALM      30.10F
$$



USA.gov is the U.S. government's official web portal to all federal, state and local government web resources and services.